Home   Weather   Goslar   Past weeks

Flag for Germany Past Weather in Goslar, Lower Saxony, Germany — Yesterday and Last 2 Weeks

Now
46 °F

Light rain. Fog.


Feels Like: 44 °F
Forecast: 41 / 43 °F
Wind: 6 mph from Southwest

Location: Braunschweig Wolfsburg

Current Time: Dec 10, 2016 at 7:42:53 pm

Latest Report: Dec 10, 2016 at 5:50 pm


Visibility: 2 mi

Pressure: 30.12 "Hg

Humidity: 93%

Dew Point: 45 °F

Location of GoslarLocation

Past Weather in Goslar — Graph

°F

Goslar Temperature Yesterday

Maximum temperature yesterday: 48 °F (at 12:50 pm)
Minimum temperature yesterday: 41 °F (at 5:20 am)
Average temperature yesterday: 45 °F

High & Low Weather Summary for the Past Weeks

 TemperatureHumidityPressure
High48 °F (Dec 8, 1:50 pm)100% (Nov 25, 5:50 pm)30.57 "Hg (Nov 25, 5:50 pm)
Low19 °F (Nov 29, 7:20 am)52% (Dec 5, 1:50 pm)29.95 "Hg (Dec 1, 9:50 pm)
Average37 °F82%30.29 "Hg
* Reported Nov 25 5:20 pm — Dec 10 5:50 pm, Goslar, Weather by CustomWeather, © 2016

Note: Actual official high and low records may vary slightly from our data, if they occured in-between our weather recording intervals... More about our weather records

Advertising

Goslar Weather History for the Previous 24 Hours

Scroll right to see more
 ConditionsComfort  
Time TempWeatherWind HumidityBarometerVisibility
5:50 pm
Sat, Dec 10
46 °FLight rain. Fog.6 mph93%30.12 "Hg2 mi
5:20 pm46 °FLight rain. Fog.7 mph93%30.12 "Hg1 mi
4:50 pm46 °FDrizzle. Fog.8 mph93%30.12 "Hg2 mi
4:20 pm46 °FDrizzle. Fog.8 mph93%30.15 "Hg2 mi
3:50 pm46 °FFog.7 mph93%30.15 "Hg1 mi
3:20 pm46 °FFog.7 mph93%30.15 "Hg1 mi
2:50 pm46 °FDrizzle. Fog.7 mph87%30.15 "Hg2 mi
2:20 pm46 °FDrizzle. Fog.9 mph87%30.15 "Hg3 mi
1:50 pm48 °FOvercast.12 mph76%30.12 "HgN/A
1:20 pm48 °FPartly sunny.12 mph76%30.12 "HgN/A
12:50 pm48 °FPartly sunny.12 mph76%30.15 "HgN/A
12:20 pm48 °FPartly sunny.14 mph76%30.15 "HgN/A
11:50 am48 °FPartly sunny.13 mph76%30.15 "HgN/A
11:20 am46 °FBroken clouds.10 mph82%30.15 "HgN/A
10:50 am46 °FSunny.9 mph76%30.15 "Hg10 mi
10:20 am46 °FPassing clouds.12 mph76%30.15 "HgN/A
9:50 am46 °FPassing clouds.15 mph76%30.15 "HgN/A
9:20 am45 °FSunny.12 mph81%30.15 "Hg10 mi
8:50 am46 °FSunny.14 mph76%30.15 "Hg10 mi
8:20 am46 °FSunny.13 mph82%30.12 "Hg10 mi
7:50 am46 °FClear.14 mph82%30.15 "Hg10 mi
10:50 pm
Fri, Dec 9
46 °FClear.12 mph93%30.24 "Hg10 mi
9:50 pm46 °FOvercast.13 mph93%30.24 "HgN/A
9:20 pm46 °FLow clouds.15 mph93%30.24 "HgN/A
8:20 pm46 °FMostly cloudy.14 mph93%30.24 "Hg5 mi
Weather by CustomWeather, © 2016

See weather overviewHow to use our weather pages